Regional Weather Roundup
Issued by NWS

Home | Current Version | Previous Version | Text Only | Print | Product List | Glossary On
Versions: 1 2 3 4 5 6 7 8 9 10 11 12 13 14 15 16 17 18 19 20 21 22 23 24 25 26 27 28 29 30 31 32 33 34 35 36 37 38 39 40 41 42 43 44 45 46 47 48 49 50
000
ASUS45 KABQ 202101
RWRNM
WEATHER ROUNDUP FOR NEW MEXICO
NATIONAL WEATHER SERVICE ALBUQUERQUE NM
200 PM MST THU NOV 20 2014

NOTE: "FAIR" MEANS FEW OR NO CLOUDS BELOW 12,000 FEET AGL WITH NO
       SIGNIFICANT WEATHER OR OBSTRUCTIONS TO VISION.

      THIS PRODUCT IS RELEASED AS TWO VERSIONS.  ONE VERSION NEAR
      THE TOP OF THE HOUR CONTAINING PRELIMINARY DATA FROM ALBUQUERQUE
      AND OTHER STATIONS.  A FINAL VERSION WITH ADDITIONAL DATA IS
      ISSUED ABOUT 10 MINUTES AFTER THE HOUR.

NMZ501-503-504-510>518-202200-
NORTHWEST PLATEAU/NORTHCENTRAL MOUNTAINS

CITY           SKY/WX    TMP DP  RH WIND       PRES   REMARKS
FARMINGTON     SUNNY     50  12  21 N5        30.05F
LOS ALAMOS     SUNNY     47  12  25 E6        30.07S
SANTA FE       SUNNY     53   3  13 N8        30.04F
TAOS           PTSUNNY   45  12  26 SE3       30.06F
ANGEL FIRE     CLOUDY    40   6  23 SW7       30.06F

$$
NMZ402-403-502-505>509-202200-
WESTCENTRAL MOUNTAINS/SOUTHWEST MOUNTAINS

CITY           SKY/WX    TMP DP  RH WIND       PRES   REMARKS
GALLUP         FAIR      56  11  16 W13       30.06F
SILVER CITY    FAIR      61   5  11 W13       30.08F

$$
NMZ407-409-411-412-202200-
SOUTHERN DESERTS

CITY           SKY/WX    TMP DP  RH WIND       PRES   REMARKS
LORDSBURG      FAIR      63  14  15 NW8       30.04F
DEMING         FAIR      66   8  10 W16G23    30.03F
HOLLOMAN AFB   SUNNY     63  14  15 SW6       30.01F
T OR C         FAIR      62  10  13 VRB6      30.01F

$$
NMZ519>523-202200-
CENTRAL VALLEYS/CENTRAL HIGHLANDS

CITY           SKY/WX    TMP DP  RH WIND       PRES   REMARKS
ALBUQUERQUE    MOSUNNY   56   6  13 CALM      30.04F
DOUBLE EAGLE   MOSUNNY   54   7  15 SE8       30.05F
MORIARTY ARPT  FAIR      52   8  16 NW7       30.04F
CLINES CORNERS SUNNY     50  10  20 NW17      30.02F
BELEN          FAIR      56  11  17 E5        30.03F
SOCORRO        FAIR      59   9  14 S5        30.03F

$$
NMZ524>526-539-540-202200-
SOUTHCENTRAL MOUNTAINS

CITY           SKY/WX    TMP DP  RH WIND       PRES   REMARKS
RUIDOSO        SUNNY     55   9  15 N16G22    30.07F

$$
NMZ527>531-202200-
NORTHEAST HIGHLANDS/NORTHEAST PLAINS

CITY           SKY/WX    TMP DP  RH WIND       PRES   REMARKS
LAS VEGAS      SUNNY     56  10  16 S12       29.98F
RATON          SUNNY     53  16  23 SW7       29.96F
CLAYTON        MOSUNNY   53  18  25 NE9       29.96S

$$
NMZ532>537-202200-
EASTCENTRAL PLAINS

CITY           SKY/WX    TMP DP  RH WIND       PRES   REMARKS
TUCUMCARI      SUNNY     61  18  18 NE6       29.93F
CANNON AFB     SUNNY     63  12  13 CALM      29.94F
CLOVIS AIRPORT SUNNY     63  18  17 NW3       29.93

$$
NMZ028-029-538-202200-
SOUTHEAST PLAINS

CITY           SKY/WX    TMP DP  RH WIND       PRES   REMARKS
ROSWELL        SUNNY     69  17  13 SE7       29.93F
CARLSBAD       SUNNY     71  22  15 SE8       29.94F
HOBBS          SUNNY     70   7   8 W8        29.96F


$$



USA.gov is the U.S. government's official web portal to all federal, state and local government web resources and services.